| time (UTC) | temp F | wind direction | speed knots | gust knots | rain 1hr in | rain 24hr in | rain mn in | humidity % | barometer mb |
| 20260505041629 | 62 | 178 | 0.0 | 3.5 | 0.00 | 0.00 | 0.00 | 78 | 1009.8 |
| 20260505041129 | 62 | 171 | 0.9 | 3.5 | 0.00 | 0.00 | 0.00 | 78 | 1009.7 |
| 20260505040631 | 62 | 184 | 0.0 | 3.5 | 0.00 | 0.00 | 0.00 | 78 | 1009.7 |
| 20260505040130 | 62 | 213 | 0.0 | 7.0 | 0.00 | 0.00 | 0.00 | 78 | 1009.8 |
| 20260505035631 | 62 | 171 | 0.9 | 7.0 | 0.00 | 0.00 | 0.00 | 77 | 1009.7 |
| 20260505035130 | 62 | 159 | 0.9 | 5.2 | 0.00 | 0.00 | 0.00 | 77 | 1009.7 |
| 20260505034630 | 62 | 193 | 0.9 | 5.2 | 0.00 | 0.00 | 0.00 | 76 | 1009.7 |
| 20260505034400 | 62 | 225 | 0.9 | 3.5 | 0.00 | 0.00 | 0.00 | 75 | 1009.8 |
| 20260505033630 | 62 | 188 | 0.0 | 4.3 | 0.00 | 0.00 | 0.00 | 74 | 1009.8 |
| 20260505033130 | 63 | 178 | 0.0 | 4.3 | 0.00 | 0.00 | 0.00 | 74 | 1009.7 |
| 20260505032630 | 63 | 159 | 0.0 | 4.3 | 0.00 | 0.00 | 0.00 | 73 | 1009.8 |
| 20260505032129 | 63 | 183 | 0.0 | 4.3 | 0.00 | 0.00 | 0.00 | 72 | 1009.8 |
| 20260505031901 | 63 | 223 | 0.0 | 4.3 | 0.00 | 0.00 | 0.00 | 71 | 1009.8 |
| 20260505031400 | 63 | 202 | 0.9 | 6.1 | 0.00 | 0.00 | 0.00 | 70 | 1009.8 |
| 20260505031251 | 63 | 207 | 0.0 | 5.2 | 0.00 | 0.00 | 0.00 | 69 | 1009.8 |
| 20260505030126 | 63 | 168 | 0.0 | 3.5 | 0.00 | 0.00 | 0.00 | 68 | 1009.7 |
| 20260505025626 | 63 | 227 | 0.0 | 3.5 | 0.00 | 0.00 | 0.00 | 68 | 1009.8 |
| 20260505025355 | 63 | 145 | 0.0 | 2.6 | 0.00 | 0.00 | 0.00 | 67 | 1009.7 |
| 20260505024625 | 63 | 190 | 0.9 | 7.0 | 0.00 | 0.00 | 0.00 | 68 | 1009.6 |
| 20260505024132 | 63 | 172 | 0.9 | 7.0 | 0.00 | 0.00 | 0.00 | 68 | 1009.6 |
| 20260505023628 | 63 | 169 | 0.0 | 1.7 | 0.00 | 0.00 | 0.00 | 69 | 1009.7 |
| 20260505023356 | 63 | 136 | 0.0 | 1.7 | 0.00 | 0.00 | 0.00 | 69 | 1009.6 |
| 20260505022625 | 64 | 188 | 0.9 | 8.7 | 0.00 | 0.00 | 0.00 | 69 | 1009.8 |
| 20260505022128 | 64 | 175 | 0.9 | 8.7 | 0.00 | 0.00 | 0.00 | 69 | 1009.8 |
| 20260505021624 | 64 | 169 | 0.0 | 7.0 | 0.00 | 0.00 | 0.00 | 68 | 1009.9 |
| 20260505021357 | 64 | 182 | 0.0 | 7.0 | 0.00 | 0.00 | 0.00 | 67 | 1009.8 |
| 20260505020625 | 64 | 202 | 0.0 | 0.9 | 0.00 | 0.00 | 0.00 | 67 | 1009.7 |
| 20260505020121 | 64 | 183 | 0.0 | 3.5 | 0.00 | 0.00 | 0.00 | 66 | 1009.6 |
| 20260505015621 | 64 | 167 | 0.0 | 3.5 | 0.00 | 0.00 | 0.00 | 66 | 1009.5 |
| 20260505015119 | 64 | 178 | 0.0 | 0.0 | 0.00 | 0.00 | 0.00 | 65 | 1009.5 |
| 20260505014619 | 64 | 217 | 0.0 | 0.0 | 0.00 | 0.00 | 0.00 | 65 | 1009.5 |
| 20260505014119 | 64 | 158 | 0.0 | 0.0 | 0.00 | 0.00 | 0.00 | 65 | 1009.5 |
| 20260505013622 | 64 | 166 | 0.0 | 0.0 | 0.00 | 0.00 | 0.00 | 64 | 1009.4 |
| 20260505013346 | 65 | 185 | 0.0 | 5.2 | 0.00 | 0.00 | 0.00 | 64 | 1009.4 |
| 20260505012613 | 65 | 206 | 0.0 | 5.2 | 0.00 | 0.00 | 0.00 | 63 | 1009.4 |
| 20260505012345 | 65 | 206 | 0.9 | 5.2 | 0.00 | 0.00 | 0.00 | 62 | 1009.3 |
| 20260505011614 | 65 | 216 | 0.9 | 8.7 | 0.00 | 0.00 | 0.00 | 61 | 1009.3 |
| 20260505011113 | 65 | 153 | 0.9 | 8.7 | 0.00 | 0.00 | 0.00 | 61 | 1009.3 |
| 20260505010612 | 65 | 175 | 0.9 | 6.1 | 0.00 | 0.00 | 0.00 | 61 | 1009.2 |
| 20260505010110 | 65 | 180 | 0.0 | 4.3 | 0.00 | 0.00 | 0.00 | 60 | 1009.2 |
| 20260505005611 | 65 | 180 | 0.0 | 4.3 | 0.00 | 0.00 | 0.00 | 59 | 1009.2 |
| 20260505005109 | 65 | 188 | 0.0 | 0.0 | 0.00 | 0.00 | 0.00 | 59 | 1009.2 |
| 20260505004609 | 65 | 188 | 0.0 | 0.0 | 0.00 | 0.00 | 0.00 | 58 | 1009.1 |
| 20260505004107 | 65 | 232 | 0.0 | 3.5 | 0.00 | 0.00 | 0.00 | 57 | 1009.1 |
| 20260505003606 | 65 | 246 | 0.0 | 3.5 | 0.00 | 0.00 | 0.00 | 57 | 1009.1 |
| 20260505003105 | 65 | 167 | 0.0 | 4.3 | 0.00 | 0.00 | 0.00 | 57 | 1009.1 |
| 20260505002603 | 65 | 155 | 0.0 | 4.3 | 0.00 | 0.00 | 0.00 | 57 | 1009.1 |
| 20260505002104 | 65 | 202 | 0.0 | 4.3 | 0.00 | 0.00 | 0.00 | 57 | 1009.0 |
| 20260505001604 | 65 | 175 | 0.0 | 4.3 | 0.00 | 0.00 | 0.00 | 57 | 1009.0 |
| 20260505001332 | 65 | 168 | 0.0 | 4.3 | 0.00 | 0.00 | 0.00 | 57 | 1009.0 |
| 20260505000603 | 65 | 155 | 0.0 | 2.6 | 0.00 | 0.00 | 0.00 | 58 | 1009.0 |
| 20260505000056 | 65 | 199 | 0.0 | 1.7 | 0.00 | 0.00 | 0.00 | 59 | 1009.0 |
| 20260504235556 | 66 | 196 | 0.0 | 4.3 | 0.00 | 0.00 | 0.00 | 59 | 1009.0 |
| 20260504235056 | 66 | 164 | 0.9 | 4.3 | 0.00 | 0.00 | 0.00 | 59 | 1009.0 |
| 20260504234558 | 66 | 231 | 0.9 | 4.3 | 0.00 | 0.00 | 0.00 | 60 | 1009.1 |
| 20260504234056 | 66 | 161 | 0.9 | 7.8 | 0.00 | 0.00 | 0.00 | 60 | 1009.0 |
| 20260504233555 | 66 | 161 | 0.9 | 7.8 | 0.00 | 0.00 | 0.00 | 59 | 1009.0 |
| 20260504233051 | 67 | 178 | 0.9 | 7.0 | 0.00 | 0.00 | 0.00 | 58 | 1009.1 |
| 20260504232553 | 67 | 174 | 0.9 | 7.0 | 0.00 | 0.00 | 0.00 | 56 | 1009.1 |
| 20260504232052 | 67 | 184 | 0.9 | 5.2 | 0.00 | 0.00 | 0.00 | 55 | 1009.0 |
| 20260504231821 | 68 | 192 | 0.9 | 6.1 | 0.00 | 0.00 | 0.00 | 54 | 1009.0 |
| 20260504231049 | 68 | 174 | 0.9 | 7.0 | 0.00 | 0.00 | 0.00 | 53 | 1009.0 |
| 20260504230550 | 69 | 204 | 0.9 | 7.0 | 0.00 | 0.00 | 0.00 | 52 | 1009.2 |
| 20260504230044 | 69 | 206 | 0.9 | 6.1 | 0.00 | 0.00 | 0.00 | 50 | 1009.1 |
| 20260504225545 | 69 | 214 | 1.7 | 5.2 | 0.00 | 0.00 | 0.00 | 48 | 1009.0 |
| 20260504225540 | 69 | 169 | 1.7 | 5.2 | 0.00 | 0.00 | 0.00 | 48 | 1009.0 |
| 20260504224537 | 69 | 167 | 1.7 | 8.7 | 0.00 | 0.00 | 0.00 | 47 | 1009.0 |
| 20260504224036 | 70 | 157 | 1.7 | 10.4 | 0.00 | 0.00 | 0.00 | 45 | 1008.9 |
| 20260504223531 | 71 | 148 | 1.7 | 11.3 | 0.00 | 0.00 | 0.00 | 43 | 1008.9 |
| 20260504223031 | 71 | 164 | 1.7 | 11.3 | 0.00 | 0.00 | 0.00 | 40 | 1009.0 |
| 20260504222531 | 71 | 224 | 2.6 | 11.3 | 0.00 | 0.00 | 0.00 | 39 | 1009.0 |
| 20260504222304 | 71 | 184 | 1.7 | 11.3 | 0.00 | 0.00 | 0.00 | 38 | 1009.0 |
| 20260504222151 | 72 | 145 | 1.7 | 9.6 | 0.00 | 0.00 | 0.00 | 38 | 1008.9 |
| 20260504221033 | 72 | 153 | 2.6 | 13.9 | 0.00 | 0.00 | 0.00 | 38 | 1008.9 |
| 20260504220530 | 72 | 212 | 3.5 | 13.9 | 0.00 | 0.00 | 0.00 | 37 | 1009.0 |
| 20260504220257 | 72 | 157 | 1.7 | 8.7 | 0.00 | 0.00 | 0.00 | 38 | 1008.9 |
| 20260504215525 | 72 | 161 | 0.9 | 7.8 | 0.00 | 0.00 | 0.00 | 37 | 1009.0 |
| 20260504215026 | 72 | 170 | 0.9 | 7.0 | 0.00 | 0.00 | 0.00 | 37 | 1009.0 |
| 20260504214525 | 72 | 162 | 2.6 | 10.4 | 0.00 | 0.00 | 0.00 | 36 | 1009.0 |
| 20260504214257 | 72 | 165 | 3.5 | 13.9 | 0.00 | 0.00 | 0.00 | 36 | 1009.1 |
| 20260504213524 | 72 | 155 | 3.5 | 13.9 | 0.00 | 0.00 | 0.00 | 36 | 1009.0 |
| 20260504213022 | 72 | 140 | 2.6 | 13.0 | 0.00 | 0.00 | 0.00 | 36 | 1009.1 |
| 20260504212523 | 72 | 193 | 0.9 | 7.8 | 0.00 | 0.00 | 0.00 | 35 | 1009.0 |
| 20260504212026 | 72 | 150 | 1.7 | 11.3 | 0.00 | 0.00 | 0.00 | 35 | 1009.0 |
| 20260504211523 | 72 | 132 | 1.7 | 11.3 | 0.00 | 0.00 | 0.00 | 37 | 1009.0 |
| 20260504211023 | 72 | 198 | 1.7 | 10.4 | 0.00 | 0.00 | 0.00 | 35 | 1009.0 |
| 20260504210523 | 72 | 193 | 1.7 | 7.8 | 0.00 | 0.00 | 0.00 | 36 | 1009.1 |
| 20260504210019 | 72 | 193 | 1.7 | 8.7 | 0.00 | 0.00 | 0.00 | 35 | 1009.1 |
| 20260504205518 | 73 | 191 | 0.9 | 8.7 | 0.00 | 0.00 | 0.00 | 35 | 1009.1 |
| 20260504205017 | 73 | 178 | 1.7 | 7.8 | 0.00 | 0.00 | 0.00 | 36 | 1009.1 |
| 20260504204520 | 73 | 150 | 1.7 | 7.8 | 0.00 | 0.00 | 0.00 | 36 | 1009.2 |
| 20260504204017 | 73 | 165 | 0.9 | 7.0 | 0.00 | 0.00 | 0.00 | 36 | 1009.3 |
| 20260504203519 | 72 | 159 | 1.7 | 8.7 | 0.00 | 0.00 | 0.00 | 37 | 1009.3 |
| 20260504203014 | 72 | 140 | 1.7 | 8.7 | 0.00 | 0.00 | 0.00 | 36 | 1009.4 |
| 20260504202514 | 72 | 176 | 1.7 | 8.7 | 0.00 | 0.00 | 0.00 | 35 | 1009.4 |
| 20260504202014 | 72 | 144 | 1.7 | 8.7 | 0.00 | 0.00 | 0.00 | 36 | 1009.5 |
| 20260504201745 | 72 | 153 | 2.6 | 8.7 | 0.00 | 0.00 | 0.00 | 35 | 1009.5 |
| 20260504201014 | 72 | 121 | 3.5 | 8.7 | 0.00 | 0.00 | 0.00 | 35 | 1009.6 |
| 20260504200518 | 73 | 119 | 2.6 | 9.6 | 0.00 | 0.00 | 0.00 | 36 | 1009.8 |
| 20260504200514 | 73 | 150 | 2.6 | 8.7 | 0.00 | 0.00 | 0.00 | 35 | 1009.7 |
| 20260504195742 | 72 | 162 | 2.6 | 12.2 | 0.00 | 0.00 | 0.00 | 35 | 1009.9 |
| 20260504195008 | 72 | 171 | 2.6 | 12.2 | 0.00 | 0.00 | 0.00 | 34 | 1010.0 |
| 20260504194738 | 72 | 180 | 1.7 | 10.4 | 0.00 | 0.00 | 0.00 | 35 | 1010.1 |
| 20260504194004 | 72 | 221 | 1.7 | 9.6 | 0.00 | 0.00 | 0.00 | 34 | 1010.2 |
| 20260504193504 | 71 | 149 | 1.7 | 8.7 | 0.00 | 0.00 | 0.00 | 35 | 1010.3 |
| 20260504193005 | 71 | 187 | 1.7 | 8.7 | 0.00 | 0.00 | 0.00 | 35 | 1010.4 |
| 20260504192506 | 71 | 186 | 1.7 | 8.7 | 0.00 | 0.00 | 0.00 | 36 | 1010.4 |
| 20260504192001 | 72 | 183 | 0.9 | 8.7 | 0.00 | 0.00 | 0.00 | 35 | 1010.5 |
| 20260504191504 | 72 | 143 | 0.9 | 4.3 | 0.00 | 0.00 | 0.00 | 36 | 1010.8 |
| 20260504191459 | 72 | 124 | 0.0 | 8.7 | 0.00 | 0.00 | 0.00 | 35 | 1010.6 |
| 20260504190501 | 71 | 184 | 0.9 | 10.4 | 0.00 | 0.00 | 0.00 | 36 | 1010.8 |
| 20260504190230 | 71 | 153 | 1.7 | 10.4 | 0.00 | 0.00 | 0.00 | 38 | 1010.9 |
| 20260504185732 | 71 | 140 | 2.6 | 9.6 | 0.00 | 0.00 | 0.00 | 35 | 1010.9 |
| 20260504185225 | 71 | 155 | 1.7 | 9.6 | 0.00 | 0.00 | 0.00 | 37 | 1011.0 |
| 20260504184454 | 71 | 191 | 2.6 | 9.6 | 0.00 | 0.00 | 0.00 | 37 | 1011.1 |
| 20260504183954 | 71 | 157 | 1.7 | 8.7 | 0.00 | 0.00 | 0.00 | 37 | 1011.1 |
| 20260504183454 | 70 | 213 | 0.9 | 7.0 | 0.00 | 0.00 | 0.00 | 35 | 1011.1 |
| 20260504182954 | 70 | 215 | 1.7 | 7.8 | 0.00 | 0.00 | 0.00 | 36 | 1011.0 |
| 20260504182454 | 70 | 171 | 2.6 | 8.7 | 0.00 | 0.00 | 0.00 | 35 | 1011.0 |
| 20260504181949 | 70 | 171 | 2.6 | 8.7 | 0.00 | 0.00 | 0.00 | 37 | 1011.1 |
| 20260504181725 | 70 | 162 | 1.7 | 7.8 | 0.00 | 0.00 | 0.00 | 36 | 1011.4 |
| 20260504181450 | 70 | 171 | 1.7 | 8.7 | 0.00 | 0.00 | 0.00 | 37 | 1011.2 |
| 20260504180720 | 69 | 156 | 1.7 | 7.8 | 0.00 | 0.00 | 0.00 | 37 | 1011.4 |
| 20260504175950 | 69 | 188 | 0.9 | 7.0 | 0.00 | 0.00 | 0.00 | 36 | 1011.5 |
| 20260504175451 | 69 | 226 | 0.9 | 6.1 | 0.00 | 0.00 | 0.00 | 37 | 1011.5 |
| 20260504174951 | 69 | 186 | 1.7 | 8.7 | 0.00 | 0.00 | 0.00 | 37 | 1011.6 |
| 20260504174434 | 69 | 143 | 2.6 | 10.4 | 0.00 | 0.00 | 0.00 | 37 | 1011.7 |
| 20260504173936 | 69 | 248 | 2.6 | 10.4 | 0.00 | 0.00 | 0.00 | 37 | 1011.7 |
| 20260504173438 | 69 | 170 | 1.7 | 5.2 | 0.00 | 0.00 | 0.00 | 38 | 1011.8 |
| 20260504172935 | 69 | 166 | 0.9 | 6.1 | 0.00 | 0.00 | 0.00 | 37 | 1011.8 |
| 20260504172432 | 68 | 160 | 1.7 | 9.6 | 0.00 | 0.00 | 0.00 | 38 | 1011.8 |
| 20260504171932 | 69 | 212 | 1.7 | 9.6 | 0.00 | 0.00 | 0.00 | 37 | 1011.8 |
| 20260504171430 | 69 | 227 | 1.7 | 8.7 | 0.00 | 0.00 | 0.00 | 36 | 1011.9 |
| 20260504170930 | 69 | 175 | 1.7 | 8.7 | 0.00 | 0.00 | 0.00 | 38 | 1011.9 |
| 20260504170430 | 69 | 193 | 0.9 | 8.7 | 0.00 | 0.00 | 0.00 | 37 | 1012.0 |
| 20260504160415 | 67 | 152 | 0.0 | 4.3 | 0.00 | 0.00 | 0.00 | 46 | 1013.0 |
| 20260504160146 | 66 | 202 | 0.9 | 7.0 | 0.00 | 0.00 | 0.00 | 46 | 1013.1 |
| 20260504150858 | 64 | 169 | 0.9 | 6.1 | 0.00 | 0.00 | 0.00 | 48 | 1013.5 |
| 20260504150356 | 64 | 150 | 0.9 | 6.1 | 0.00 | 0.00 | 0.00 | 47 | 1013.5 |
| 20260504150130 | 64 | 164 | 0.0 | 4.3 | 0.00 | 0.00 | 0.00 | 48 | 1013.6 |
| 20260504141119 | 62 | 144 | 0.9 | 6.1 | 0.00 | 0.00 | 0.00 | 51 | 1013.7 |
| 20260504140348 | 61 | 244 | 0.9 | 5.2 | 0.00 | 0.00 | 0.00 | 51 | 1013.7 |
| 20260504130329 | 59 | 146 | 0.9 | 8.7 | 0.00 | 0.00 | 0.00 | 54 | 1014.1 |
| 20260504120317 | 54 | 190 | 0.0 | 0.0 | 0.00 | 0.00 | 0.00 | 66 | 1014.3 |
| 20260504110531 | 42 | 306 | 0.0 | 0.0 | 0.00 | 0.00 | 0.00 | 91 | 1014.6 |
| 20260504100249 | 40 | 273 | 0.0 | 0.0 | 0.00 | 0.00 | 0.00 | 91 | 1014.5 |
| 20260504081727 | 40 | 273 | 0.0 | 0.0 | 0.00 | 0.00 | 0.00 | 90 | 1014.8 |
| 20260504081227 | 40 | 273 | 0.0 | 0.0 | 0.00 | 0.00 | 0.00 | 90 | 1014.7 |
| 20260504080724 | 40 | 273 | 0.0 | 0.0 | 0.00 | 0.00 | 0.00 | 89 | 1014.8 |
| 20260504080224 | 40 | 273 | 0.0 | 0.0 | 0.00 | 0.00 | 0.00 | 89 | 1014.8 |
| 20260504070210 | 41 | 273 | 0.0 | 0.0 | 0.00 | 0.00 | 0.00 | 89 | 1014.8 |
| 20260504060154 | 41 | 273 | 0.0 | 0.0 | 0.00 | 0.00 | 0.00 | 88 | 1014.8 |
| 20260504050642 | 41 | 273 | 0.0 | 0.0 | 0.00 | 0.00 | 0.00 | 86 | 1015.0 |
| 20260504050142 | 41 | 273 | 0.0 | 0.0 | 0.00 | 0.00 | 0.00 | 86 | 1015.1 |
| 20260504045915 | 41 | 273 | 0.0 | 0.0 | 0.00 | 0.00 | 0.00 | 85 | 1015.0 |
| 20260504045144 | 41 | 273 | 0.0 | 0.0 | 0.00 | 0.00 | 0.00 | 85 | 1015.0 |
| 20260504044643 | 41 | 274 | 0.0 | 0.0 | 0.00 | 0.00 | 0.00 | 84 | 1015.0 |
| 20260504044139 | 41 | 273 | 0.0 | 0.0 | 0.00 | 0.00 | 0.00 | 84 | 1015.0 |
| 20260504043635 | 42 | 273 | 0.0 | 0.0 | 0.00 | 0.00 | 0.00 | 84 | 1015.0 |
| 20260504043135 | 42 | 273 | 0.0 | 0.0 | 0.00 | 0.00 | 0.00 | 84 | 1015.0 |
| 20260504042635 | 42 | 273 | 0.0 | 0.0 | 0.00 | 0.00 | 0.00 | 83 | 1015.0 |
| 20260504042132 | 42 | 273 | 0.0 | 0.0 | 0.00 | 0.00 | 0.00 | 83 | 1014.7 |